Tracking 25710 objects as of 6-Jul-2022
HD Live streaming from Space Station
objects crossing your sky now

STARLINK-2526

Track STARLINK-2526 now!
10-day predictions
STARLINK-2526 is classified as:


NORAD ID: 48378
Int'l Code: 2021-038AB
Perigee: 553.4 km
Apogee: 555.3 km
Inclination: 53.1 °
Period: 95.6 minutes
Semi major axis: 6925 km
RCS: Unknown
Launch date: May 4, 2021
Source: United States (US)
Launch site: AIR FORCE EASTERN TEST RANGE (AFETR)
aabbcc
Your satellite tracking list
Your tracking list is empty




NASA's NSSDC Master Catalog

Two Line Element Set (TLE):
1 48378U 21038AB  22186.47633723  .00000863  00000-0  76813-4 0  9994
2 48378  53.0542 261.5515 0001374  74.3143 285.7997 15.06399370 64711
Source of the keplerian elements: AFSPC